TimeHST,TemperatureF,Dew PointF,Humidity,Sea Level PressureIn,VisibilityMPH,Wind Direction,Wind SpeedMPH,Gust SpeedMPH,PrecipitationIn,Events,Conditions,WindDirDegrees,DateUTC
12:55 AM,68.9,62.2,79,29.98,10.0,NNW,5.8,-,N/A,,Scattered Clouds,330,2012-11-26 10:55:00
1:17 AM,69.8,62.6,78,29.97,10.0,NNW,5.8,-,N/A,,Mostly Cloudy,330,2012-11-26 11:17:00
1:25 AM,69.8,62.6,78,29.97,10.0,North,5.8,-,N/A,,Drizzle,350,2012-11-26 11:25:00
1:29 AM,69.8,62.6,78,29.98,10.0,North,5.8,-,N/A,,Light Drizzle,350,2012-11-26 11:29:00
1:38 AM,69.8,62.6,78,29.98,10.0,NNW,5.8,-,N/A,,Overcast,340,2012-11-26 11:38:00
1:55 AM,69.1,63.1,81,29.98,10.0,North,5.8,-,0.00,,Overcast,350,2012-11-26 11:55:00
1:57 AM,69.8,62.6,78,29.97,10.0,North,5.8,-,N/A,,Drizzle,350,2012-11-26 11:57:00
2:10 AM,69.8,62.6,78,29.97,10.0,NNW,5.8,-,N/A,,Overcast,340,2012-11-26 12:10:00
2:55 AM,68.7,62.4,80,29.96,10.0,North,3.5,-,0.00,,Mostly Cloudy,360,2012-11-26 12:55:00
3:44 AM,68.0,62.6,83,29.96,10.0,NNW,8.1,-,N/A,,Drizzle,340,2012-11-26 13:44:00
3:54 AM,68.0,62.6,83,29.96,10.0,North,6.9,-,N/A,,Overcast,360,2012-11-26 13:54:00
3:55 AM,68.7,62.4,80,29.96,10.0,North,6.9,-,0.00,,Overcast,350,2012-11-26 13:55:00
4:08 AM,68.0,62.6,83,29.96,10.0,NNW,6.9,-,N/A,,Light Drizzle,340,2012-11-26 14:08:00
4:18 AM,68.0,62.6,83,29.96,10.0,North,8.1,-,N/A,,Mostly Cloudy,360,2012-11-26 14:18:00
4:23 AM,68.0,62.6,83,29.96,10.0,NNW,8.1,-,N/A,,Light Drizzle,340,2012-11-26 14:23:00
4:32 AM,68.0,62.6,83,29.96,10.0,NNE,9.2,-,N/A,,Mostly Cloudy,20,2012-11-26 14:32:00
4:55 AM,68.5,61.5,78,29.96,10.0,NNW,9.2,-,0.00,,Overcast,340,2012-11-26 14:55:00
5:46 AM,68.0,62.6,83,29.98,10.0,North,8.1,-,N/A,,Light Drizzle,360,2012-11-26 15:46:00
5:55 AM,67.8,62.6,83,29.98,10.0,North,8.1,-,0.00,Rain,Light Rain,360,2012-11-26 15:55:00
6:05 AM,68.0,62.6,83,29.99,10.0,North,9.2,-,N/A,,Overcast,360,2012-11-26 16:05:00
6:09 AM,68.0,62.6,83,29.99,10.0,North,8.1,-,N/A,Rain,Light Rain,360,2012-11-26 16:09:00
6:41 AM,68.0,60.8,78,30.01,10.0,North,5.8,-,N/A,,Scattered Clouds,10,2012-11-26 16:41:00
6:55 AM,67.5,61.0,80,30.00,10.0,North,6.9,-,0.00,,Scattered Clouds,10,2012-11-26 16:55:00
7:55 AM,68.4,60.1,75,30.02,10.0,North,5.8,-,N/A,,Mostly Cloudy,350,2012-11-26 17:55:00
7:56 AM,68.0,60.8,78,30.02,10.0,North,5.8,-,N/A,,Light Drizzle,350,2012-11-26 17:56:00
8:05 AM,68.0,60.8,78,30.02,10.0,North,5.8,-,N/A,,Mostly Cloudy,360,2012-11-26 18:05:00
8:55 AM,70.7,60.8,71,30.04,10.0,North,6.9,-,0.00,,Overcast,360,2012-11-26 18:55:00
9:55 AM,72.1,59.7,65,30.04,10.0,NE,11.5,-,N/A,,Overcast,40,2012-11-26 19:55:00
10:44 AM,71.6,59.0,64,30.03,10.0,NNE,10.4,-,N/A,,Light Drizzle,20,2012-11-26 20:44:00
10:55 AM,70.7,60.8,71,30.03,10.0,NNE,8.1,-,0.00,Rain,Light Rain,30,2012-11-26 20:55:00
11:01 AM,69.8,60.8,73,30.02,10.0,NE,8.1,-,N/A,,Overcast,40,2012-11-26 21:01:00
11:55 AM,72.0,59.4,64,30.01,10.0,ENE,8.1,-,0.00,,Overcast,60,2012-11-26 21:55:00
12:02 PM,71.6,59.0,64,30.01,10.0,NE,8.1,-,N/A,,Light Drizzle,40,2012-11-26 22:02:00
12:11 PM,71.6,59.0,64,30.01,10.0,East,10.4,-,N/A,,Overcast,80,2012-11-26 22:11:00
12:55 PM,73.6,58.8,60,30.00,10.0,NE,11.5,-,0.00,,Mostly Cloudy,40,2012-11-26 22:55:00
1:09 PM,73.4,60.8,65,29.99,10.0,NNE,15.0,18.4,N/A,,Light Drizzle,20,2012-11-26 23:09:00
1:21 PM,69.8,60.8,73,29.99,10.0,North,6.9,-,N/A,,Mostly Cloudy,360,2012-11-26 23:21:00
1:55 PM,72.0,60.4,67,29.98,10.0,North,12.7,-,0.00,,Mostly Cloudy,10,2012-11-26 23:55:00
2:55 PM,72.5,59.4,63,29.97,10.0,NE,16.1,-,N/A,,Partly Cloudy,40,2012-11-27 00:55:00
3:55 PM,71.8,59.7,66,29.98,10.0,NNE,11.5,-,N/A,,Overcast,20,2012-11-27 01:55:00
4:55 PM,71.2,58.5,64,29.98,10.0,NNE,11.5,-,N/A,,Overcast,20,2012-11-27 02:55:00
5:55 PM,70.7,57.6,63,30.00,10.0,NE,10.4,-,N/A,,Overcast,40,2012-11-27 03:55:00
6:55 PM,69.8,57.7,65,30.03,10.0,North,6.9,-,N/A,,Mostly Cloudy,10,2012-11-27 04:55:00
7:55 PM,69.4,57.7,66,30.05,10.0,NNE,6.9,-,N/A,,Mostly Cloudy,20,2012-11-27 05:55:00
8:55 PM,69.3,56.8,65,30.06,10.0,North,6.9,-,N/A,,Mostly Cloudy,10,2012-11-27 06:55:00
9:55 PM,68.9,56.5,65,30.06,10.0,North,5.8,-,N/A,,Mostly Cloudy,10,2012-11-27 07:55:00
10:55 PM,68.5,56.5,65,30.06,10.0,North,8.1,-,N/A,,Clear,360,2012-11-27 08:55:00
11:55 PM,66.9,57.0,70,30.06,10.0,NNW,6.9,-,N/A,,Clear,330,2012-11-27 09:55:00